Precipitable_Water
0.73 0.69 0.69 0.70 0.66 0.64 0.63 0.60 0.59 0.60 0.58 0.59 0.58 0.60 0.60 0.61 0.57 0.48 0.31 0.38 0.47 0.46 0.40 0.36 0.36 0.37 0.38 0.45 0.48 0.47 0.38 0.36 0.39 0.49 0.49 0.52 0.50 0.55 0.72 0.68 0.64 0.63 0.57 0.60 0.62
0.70 0.69 0.70 0.70 0.68 0.66 0.63 0.60 0.60 0.59 0.57 0.58 0.58 0.61 0.61 0.61 0.47 0.40 0.51 0.48 0.47 0.45 0.35 0.28 0.29 0.43 0.44 0.44 0.44 0.38 0.32 0.33 0.42 0.47 0.43 0.43 0.42 0.42 0.45 0.48 0.52 0.57 0.66 0.65 0.60
0.71 0.70 0.69 0.68 0.69 0.67 0.65 0.60 0.59 0.59 0.57 0.57 0.61 0.60 0.61 0.62 0.46 0.40 0.45 0.44 0.47 0.44 0.39 0.39 0.43 0.46 0.42 0.41 0.37 0.33 0.27 0.29 0.34 0.37 0.37 0.33 0.28 0.28 0.29 0.32 0.38 0.41 0.52 0.59 0.59
0.70 0.68 0.69 0.69 0.68 0.67 0.65 0.60 0.56 0.56 0.57 0.61 0.62 0.62 0.64 0.65 0.32 0.38 0.41 0.45 0.48 0.47 0.41 0.42 0.44 0.41 0.35 0.30 0.33 0.23 0.25 0.24 0.26 0.28 0.27 0.25 0.25 0.20 0.22 0.29 0.43 0.47 0.49 0.54 0.55
0.69 0.69 0.70 0.69 0.68 0.68 0.64 0.59 0.56 0.58 0.59 0.63 0.64 0.67 0.66 0.49 0.37 0.44 0.45 0.50 0.51 0.46 0.43 0.42 0.42 0.39 0.30 0.30 0.26 0.23 0.23 0.23 0.26 0.24 0.22 0.21 0.19 0.19 0.21 0.37 0.50 0.56 0.56 0.56 0.52
0.70 0.71 0.72 0.69 0.66 0.65 0.61 0.57 0.57 0.62 0.64 0.66 0.66 0.74 0.59 0.40 0.53 0.49 0.48 0.54 0.52 0.52 0.49 0.48 0.42 0.39 0.32 0.30 0.24 0.22 0.22 0.20 0.22 0.23 0.20 0.16 0.17 0.19 0.25 0.43 0.50 0.51 0.52 0.55 0.60
0.73 0.73 0.72 0.69 0.65 0.63 0.60 0.55 0.60 0.65 0.68 0.66 0.69 0.74 0.58 0.43 0.56 0.50 0.49 0.49 0.53 0.53 0.47 0.44 0.41 0.37 0.33 0.24 0.25 0.21 0.12 0.11 0.13 0.17 0.15 0.18 0.17 0.21 0.28 0.47 0.48 0.48 0.51 0.56 0.64
0.72 0.72 0.71 0.68 0.63 0.60 0.60 0.60 0.64 0.68 0.68 0.69 0.76 0.71 0.45 0.55 0.57 0.47 0.43 0.42 0.47 0.51 0.47 0.44 0.40 0.36 0.29 0.27 0.22 0.18 0.21 0.23 0.28 0.24 0.17 0.22 0.22 0.31 0.35 0.40 0.43 0.44 0.48 0.56 0.65
0.69 0.69 0.66 0.63 0.60 0.60 0.63 0.64 0.67 0.69 0.71 0.71 0.62 0.61 0.39 0.59 0.40 0.40 0.38 0.36 0.39 0.44 0.40 0.39 0.39 0.32 0.29 0.21 0.22 0.26 0.20 0.24 0.27 0.31 0.29 0.27 0.27 0.33 0.31 0.35 0.38 0.42 0.46 0.56 0.65
0.66 0.63 0.61 0.61 0.63 0.64 0.66 0.68 0.76 0.70 0.67 0.65 0.65 0.45 0.41 0.32 0.30 0.34 0.34 0.33 0.32 0.32 0.24 0.32 0.31 0.26 0.29 0.26 0.22 0.25 0.24 0.24 0.26 0.29 0.30 0.29 0.26 0.31 0.29 0.32 0.34 0.36 0.43 0.54 0.62
0.66 0.65 0.65 0.63 0.64 0.69 0.71 0.64 0.48 0.43 0.46 0.29 0.38 0.44 0.39 0.40 0.35 0.25 0.28 0.26 0.29 0.27 0.25 0.35 0.31 0.28 0.29 0.34 0.32 0.29 0.28 0.26 0.31 0.33 0.29 0.27 0.27 0.29 0.33 0.35 0.39 0.44 0.48 0.52 0.59
0.66 0.67 0.65 0.65 0.70 0.72 0.68 0.52 0.62 0.65 0.30 0.43 0.47 0.42 0.37 0.31 0.23 0.23 0.27 0.28 0.32 0.34 0.40 0.35 0.29 0.34 0.34 0.33 0.32 0.32 0.28 0.28 0.31 0.33 0.29 0.26 0.26 0.34 0.38 0.42 0.44 0.45 0.49 0.51 0.61
0.66 0.64 0.64 0.68 0.70 0.64 0.67 0.71 0.84 0.76 0.43 0.37 0.39 0.34 0.33 0.38 0.27 0.25 0.34 0.38 0.34 0.34 0.32 0.28 0.30 0.32 0.34 0.32 0.30 0.32 0.28 0.29 0.29 0.32 0.30 0.26 0.27 0.32 0.41 0.47 0.52 0.55 0.59 0.62 0.65
0.66 0.65 0.68 0.69 0.59 0.67 0.59 0.76 0.89 0.77 0.29 0.28 0.30 0.29 0.37 0.38 0.27 0.35 0.39 0.38 0.33 0.29 0.30 0.30 0.34 0.33 0.30 0.22 0.25 0.22 0.33 0.33 0.29 0.23 0.14 0.27 0.21 0.33 0.40 0.43 0.48 0.52 0.55 0.59 0.68
0.65 0.68 0.68 0.70 0.73 0.63 0.82 0.96 0.85 0.66 0.13 0.24 0.26 0.35 0.36 0.32 0.25 0.23 0.39 0.38 0.28 0.29 0.29 0.26 0.30 0.29 0.28 0.27 0.29 0.22 0.27 0.25 0.26 0.20 0.20 0.26 0.25 0.33 0.42 0.39 0.45 0.52 0.59 0.66 0.70
0.66 0.73 0.71 0.74 0.84 0.85 0.97 0.79 0.65 0.33 0.14 0.23 0.29 0.21 0.27 0.33 0.28 0.22 0.26 0.39 0.39 0.31 0.33 0.32 0.41 0.33 0.30 0.32 0.32 0.31 0.27 0.29 0.32 0.28 0.18 0.30 0.29 0.32 0.37 0.41 0.51 0.59 0.63 0.64 0.66
0.71 0.72 0.73 0.90 0.73 0.92 0.78 0.56 0.32 0.29 0.27 0.21 0.19 0.21 0.23 0.24 0.24 0.20 0.22 0.28 0.27 0.22 0.22 0.29 0.32 0.33 0.35 0.30 0.35 0.30 0.28 0.22 0.22 0.24 0.25 0.38 0.35 0.37 0.47 0.52 0.55 0.57 0.58 0.63 0.68
0.71 0.74 0.80 0.91 0.94 0.84 0.63 0.41 0.32 0.27 0.25 0.25 0.27 0.27 0.23 0.28 0.29 0.29 0.26 0.26 0.34 0.36 0.27 0.26 0.26 0.32 0.33 0.36 0.31 0.29 0.27 0.20 0.18 0.21 0.24 0.32 0.28 0.35 0.50 0.59 0.60 0.63 0.67 0.71 0.73
0.73 0.70 0.68 0.73 0.81 0.72 0.45 0.38 0.35 0.29 0.29 0.25 0.30 0.26 0.25 0.29 0.30 0.32 0.31 0.28 0.34 0.40 0.29 0.28 0.30 0.38 0.28 0.33 0.38 0.32 0.22 0.30 0.23 0.26 0.20 0.28 0.37 0.47 0.54 0.56 0.61 0.65 0.70 0.67 0.67
0.60 0.55 0.52 0.74 0.72 0.52 0.41 0.42 0.40 0.38 0.35 0.31 0.24 0.29 0.26 0.25 0.27 0.31 0.31 0.38 0.30 0.40 0.45 0.37 0.28 0.31 0.34 0.37 0.33 0.25 0.31 0.21 0.21 0.12 0.13 0.23 0.29 0.33 0.42 0.48 0.52 0.52 0.57 0.61 0.64
0.60 0.36 0.57 0.78 0.59 0.37 0.31 0.44 0.41 0.41 0.40 0.30 0.29 0.31 0.33 0.30 0.27 0.30 0.32 0.36 0.35 0.35 0.38 0.39 0.32 0.24 0.34 0.30 0.24 0.27 0.24 0.24 0.24 0.22 0.14 0.15 0.20 0.35 0.41 0.48 0.48 0.51 0.55 0.60 0.65
0.52 0.27 0.72 0.71 0.28 0.33 0.27 0.51 0.44 0.40 0.40 0.38 0.40 0.40 0.37 0.36 0.35 0.35 0.35 0.36 0.43 0.39 0.27 0.37 0.29 0.22 0.26 0.27 0.30 0.29 0.25 0.23 0.15 0.17 0.23 0.21 0.21 0.43 0.44 0.48 0.51 0.53 0.58 0.64 0.68
0.38 0.52 0.80 0.62 0.20 0.24 0.31 0.42 0.41 0.36 0.35 0.33 0.38 0.42 0.44 0.39 0.35 0.41 0.42 0.49 0.42 0.39 0.28 0.32 0.24 0.18 0.21 0.29 0.30 0.25 0.29 0.27 0.25 0.25 0.19 0.17 0.19 0.43 0.46 0.47 0.52 0.53 0.57 0.61 0.64
0.48 0.39 0.54 0.47 0.44 0.27 0.38 0.36 0.36 0.39 0.35 0.35 0.41 0.46 0.41 0.39 0.42 0.39 0.39 0.42 0.37 0.37 0.34 0.36 0.25 0.19 0.13 0.17 0.20 0.18 0.21 0.25 0.23 0.18 0.19 0.21 0.24 0.33 0.42 0.43 0.49 0.53 0.57 0.61 0.63
0.60 0.45 0.47 0.24 0.26 0.35 0.43 0.41 0.34 0.29 0.38 0.39 0.36 0.39 0.38 0.34 0.37 0.36 0.40 0.38 0.38 0.30 0.27 0.29 0.17 0.22 0.23 0.22 0.21 0.20 0.19 0.20 0.19 0.21 0.19 0.22 0.25 0.33 0.43 0.47 0.51 0.56 0.58 0.58 0.59
0.59 0.54 0.49 0.34 0.37 0.36 0.45 0.38 0.33 0.33 0.36 0.34 0.32 0.38 0.41 0.35 0.35 0.33 0.36 0.32 0.28 0.28 0.24 0.28 0.18 0.20 0.15 0.20 0.20 0.18 0.18 0.22 0.24 0.23 0.25 0.28 0.29 0.45 0.50 0.53 0.53 0.55 0.57 0.57 0.59
0.81 0.80 0.47 0.40 0.38 0.38 0.37 0.39 0.38 0.42 0.41 0.42 0.41 0.42 0.42 0.44 0.48 0.52 0.49 0.46 0.38 0.29 0.24 0.22 0.18 0.15 0.10 0.20 0.20 0.13 0.19 0.23 0.24 0.27 0.26 0.23 0.31 0.43 0.44 0.48 0.52 0.54 0.57 0.57 0.57
Wind_Speed
26 25 24 22 20 19 17 16 14 14 14 15 14 14 13 13 12 11 11 11 10 12 11 10 11 13 15 13 11 9 6 8 10 10 12 10 6 3 4 4 6 5 5 9 13
25 25 23 22 20 18 16 15 14 14 14 14 13 13 12 10 10 11 12 10 11 12 12 13 14 15 13 12 9 7 5 6 11 12 11 9 7 7 7 5 3 4 6 11 15
25 23 22 21 19 17 16 14 13 12 12 13 12 12 10 8 8 8 9 12 12 13 12 13 14 13 12 9 9 6 7 4 5 10 11 8 5 8 6 6 8 10 12 13 14
23 21 20 19 18 16 15 14 12 11 10 10 11 10 9 8 7 6 10 12 13 13 13 14 14 12 11 9 9 7 6 6 6 7 6 6 4 4 6 7 11 13 13 12 12
21 19 18 17 16 15 15 14 13 11 10 11 10 10 8 7 8 11 12 13 14 14 14 13 13 12 12 9 8 9 7 5 5 5 6 5 4 5 5 9 10 11 12 11 10
19 17 15 13 14 13 14 14 13 12 12 12 11 10 9 8 11 11 14 13 14 13 11 12 11 10 10 10 11 8 7 8 8 6 5 6 5 4 6 11 11 12 10 9 9
17 15 14 12 13 12 13 14 14 12 13 12 12 11 9 11 11 10 14 12 11 11 10 10 9 7 9 8 9 9 6 6 7 7 7 6 3 5 9 11 10 10 9 8 8
14 14 15 14 13 12 13 13 14 13 13 13 13 10 10 10 11 12 13 12 11 11 9 8 6 7 9 9 7 8 8 7 5 6 5 6 4 6 10 11 10 9 8 9 9
12 11 11 13 13 13 14 14 14 13 12 13 12 11 8 8 14 13 14 12 10 10 7 8 9 9 8 8 6 5 8 8 5 7 5 4 3 8 11 10 9 9 7 6 5
9 9 12 13 14 16 15 15 13 12 13 14 13 8 8 10 13 14 13 11 11 9 7 11 9 9 7 8 7 6 7 8 9 7 4 4 5 4 11 9 8 5 5 5 5
9 10 12 15 18 17 15 14 13 13 15 16 13 11 10 11 11 12 13 12 12 13 12 9 8 9 9 7 6 5 3 8 6 5 4 2 4 5 8 6 5 5 4 3 3
11 13 15 19 18 18 17 16 15 14 13 14 11 10 10 12 12 13 14 14 13 12 9 6 8 8 6 4 3 4 6 5 3 0 1 1 2 4 5 6 7 7 5 5 5
13 16 19 20 20 19 17 16 14 12 13 12 13 13 12 12 13 14 15 13 12 9 7 9 7 5 6 3 3 3 4 4 5 4 4 2 3 4 4 5 6 5 5 5 6
16 19 21 22 20 19 18 15 14 13 12 11 12 12 12 13 11 12 12 11 7 7 10 6 4 6 5 2 4 4 5 6 6 5 6 5 6 6 7 6 6 6 6 7 7
19 22 24 24 20 21 17 15 14 12 11 13 11 14 11 10 11 10 11 8 7 7 7 5 5 4 3 4 3 6 6 5 5 5 5 7 5 9 9 8 9 9 8 8 9
22 25 26 23 20 19 15 14 14 10 9 12 13 12 11 9 8 11 10 8 7 7 6 6 4 3 4 4 3 5 5 5 5 5 5 8 7 11 11 11 10 9 8 9 10
24 27 26 22 20 17 15 15 11 10 13 13 12 13 10 9 8 9 9 6 6 6 5 3 2 2 1 2 1 2 1 2 2 3 5 6 4 8 12 11 11 10 10 11 12
26 27 24 21 19 17 16 13 9 10 11 11 12 11 10 8 6 7 7 6 4 5 7 5 3 1 1 2 1 1 2 2 2 2 5 5 4 7 5 7 8 8 9 11 13
27 25 23 22 19 18 16 11 10 9 11 12 9 9 7 7 7 7 6 7 6 5 7 6 4 2 2 1 2 1 3 2 2 3 2 4 3 4 4 7 10 12 17 15 14
26 24 23 22 20 18 15 11 9 7 8 8 9 9 7 9 8 7 7 6 6 5 7 6 5 4 3 3 4 5 2 3 4 2 3 6 4 8 8 8 9 11 11 13 13
25 23 23 22 20 18 16 12 8 7 6 7 7 8 8 9 10 7 6 5 5 6 5 6 5 4 4 3 2 2 3 4 3 3 2 4 8 8 8 8 8 9 9 10 11
26 22 23 23 19 18 17 12 9 7 5 5 5 4 7 9 6 7 7 6 5 6 6 5 6 5 4 2 1 0 1 2 4 5 5 5 9 8 6 8 9 9 11 13 14
26 22 23 23 20 18 15 11 9 7 7 5 5 5 7 8 7 6 7 6 6 6 6 6 5 4 1 3 3 2 3 4 4 5 6 5 9 8 9 10 10 11 12 13 14
25 22 21 22 19 20 15 11 8 5 5 6 7 6 6 6 6 8 7 6 6 6 6 6 6 5 6 4 4 4 5 5 6 7 8 10 11 10 10 9 10 11 12 14 16
24 23 23 23 21 19 16 13 10 7 6 6 6 7 8 7 7 8 7 7 6 6 7 6 6 5 4 4 5 6 7 9 9 10 9 13 13 11 10 10 12 13 14 16 19
23 22 21 19 22 19 16 14 12 10 8 7 7 7 7 7 9 10 9 9 9 8 7 7 7 6 7 7 8 9 12 11 10 10 10 10 12 11 11 13 14 15 17 19 22
23 21 22 19 21 17 17 14 14 10 7 6 8 8 7 7 7 8 7 8 9 9 8 7 7 7 10 9 11 12 11 10 11 12 13 15 14 13 14 15 16 18 20 22 24
Wind_Direction
286 286 284 280 279 277 274 269 262 253 247 247 249 247 245 248 252 235 232 225 221 210 195 187 183 172 164 170 178 181 185 207 203 182 176 189 182 239 228 218 268 265 195 173 165
286 285 279 276 274 269 266 261 255 251 246 246 244 239 237 243 238 235 227 221 202 186 179 174 168 165 168 170 178 184 194 231 216 199 194 193 205 230 248 253 255 187 169 165 163
286 282 277 273 267 262 255 253 248 246 241 236 231 224 227 228 228 224 209 194 182 176 174 169 168 169 176 180 188 192 198 162 147 175 187 198 237 254 222 243 200 179 173 169 170
283 279 275 268 261 253 244 241 238 235 230 217 210 210 208 204 207 188 167 165 166 163 164 161 165 172 180 183 197 170 175 166 185 186 189 208 210 197 204 193 164 161 164 171 181
279 276 273 264 251 242 236 231 225 222 212 204 198 194 191 192 191 166 161 156 157 160 164 170 175 181 189 185 179 173 186 183 178 188 203 201 194 174 172 160 162 163 166 174 187
276 269 266 254 238 233 229 220 218 211 203 197 193 191 187 185 170 165 163 159 165 170 172 179 179 194 207 207 185 184 180 211 198 193 181 170 168 166 161 155 160 168 179 184 187
271 260 253 242 228 225 217 209 206 200 193 192 187 184 190 188 173 174 174 173 168 169 164 160 172 171 173 158 172 177 152 144 164 178 182 173 189 182 171 168 168 182 189 197 202
263 257 247 227 217 212 201 193 186 185 185 184 184 186 191 185 186 182 173 171 168 167 164 169 167 162 159 158 154 153 149 150 174 157 170 161 215 206 186 179 191 197 208 213 218
255 243 217 204 201 190 181 176 178 180 182 182 176 175 189 185 176 175 172 173 173 167 172 169 152 149 147 155 161 159 179 193 187 187 161 173 255 218 195 196 206 218 227 231 238
237 210 193 187 179 172 169 168 170 175 173 169 173 169 175 163 168 168 166 164 167 170 155 154 154 149 150 148 168 197 215 210 194 198 190 212 277 195 197 206 224 222 239 237 239
199 183 179 173 165 164 167 164 158 158 163 160 161 152 146 154 156 168 165 162 153 146 144 144 143 166 168 164 180 191 104 158 170 175 206 240 236 193 213 206 203 205 226 220 220
180 174 166 164 166 163 158 154 152 151 157 171 169 164 161 144 148 156 155 150 153 157 154 149 161 171 181 158 139 151 132 135 145 185 261 285 210 233 234 224 208 201 207 208 219
172 167 163 162 159 157 157 154 150 144 147 153 159 159 150 143 149 153 153 156 165 168 171 165 174 178 162 176 173 188 179 195 215 265 275 199 261 239 238 193 203 214 213 220 229
169 165 162 157 155 155 154 150 148 143 137 151 148 154 147 145 146 156 157 161 163 170 154 158 175 156 162 180 205 205 215 230 250 261 248 256 248 255 216 221 229 226 236 239 232
168 164 161 157 153 153 150 149 148 142 132 155 153 152 151 150 154 172 165 164 175 172 172 185 162 157 180 230 231 225 254 256 260 263 261 274 243 233 226 229 234 236 234 243 243
166 162 160 160 157 156 154 151 148 134 151 154 151 154 151 154 162 162 170 169 166 154 148 166 185 204 224 243 248 265 270 283 268 265 261 270 238 237 241 238 231 237 247 253 256
167 164 162 162 160 159 155 150 140 146 150 154 157 155 160 158 156 163 166 163 173 174 181 179 207 252 246 232 310 5 347 295 310 300 230 278 276 264 262 232 235 241 257 262 268
165 165 168 166 165 162 156 149 155 157 160 160 154 154 160 168 167 167 172 181 188 179 179 184 225 241 290 165 206 0 98 170 200 232 264 302 276 283 243 212 227 245 259 275 278
168 170 171 170 167 165 159 151 159 156 156 154 155 161 172 182 176 169 181 187 194 188 176 172 178 180 140 140 154 326 60 117 90 331 316 288 296 279 243 245 253 272 274 278 288
172 173 175 173 171 168 164 170 162 147 157 163 171 181 187 193 181 178 184 196 191 183 182 174 152 171 160 102 72 101 97 37 11 10 325 315 280 278 265 270 283 286 280 286 286
175 175 178 176 175 173 174 179 174 158 154 164 184 198 191 184 181 181 186 190 188 182 168 172 164 192 144 136 139 55 33 39 39 14 341 316 297 301 269 284 288 296 285 285 288
177 178 180 179 177 181 183 185 189 184 182 181 182 181 179 175 170 178 179 178 181 179 173 175 159 154 172 196 206 151 15 17 6 324 335 326 308 299 301 287 282 279 281 285 289
178 179 181 181 182 186 190 194 189 201 208 201 192 173 171 174 165 170 174 182 168 172 176 179 171 160 250 282 285 281 299 328 337 334 306 329 312 290 312 314 301 296 293 290 292
180 181 183 185 188 185 190 193 189 196 199 195 190 177 179 184 184 181 185 183 183 184 189 186 185 195 209 230 244 270 300 305 317 321 309 296 301 302 302 305 304 304 298 294 295
183 187 187 191 193 190 192 199 201 202 206 199 206 200 195 190 188 189 191 192 198 200 200 201 208 231 248 279 282 284 291 299 294 298 304 307 300 306 300 302 302 303 301 301 302
185 187 189 191 188 192 196 202 199 206 204 216 207 202 192 197 204 201 191 203 209 208 214 231 238 248 260 284 295 287 295 291 295 301 302 313 318 309 308 309 307 304 304 305 305
191 190 189 195 189 191 204 205 209 195 212 219 194 190 184 196 191 194 204 203 207 211 224 235 238 256 267 283 291 295 274 287 299 309 301 299 301 302 305 305 302 304 305 304 304